TimeEST,TemperatureF,Dew PointF,Humidity,Sea Level PressureIn,VisibilityMPH,Wind Direction,Wind SpeedMPH,Gust SpeedMPH,PrecipitationIn,Events,Conditions,WindDirDegrees,DateUTC
12:15 AM,53.2,46.6,78,30.35,10.0,SE,3.5,-,N/A,,Clear,130,2012-11-11 05:15:00
12:35 AM,53.1,46.4,78,30.35,10.0,ESE,4.6,-,N/A,,Clear,120,2012-11-11 05:35:00
12:55 AM,52.9,46.6,79,30.34,10.0,ESE,3.5,-,N/A,,Clear,120,2012-11-11 05:55:00
1:15 AM,53.2,46.4,78,30.34,10.0,ESE,3.5,-,N/A,,Clear,120,2012-11-11 06:15:00
1:35 AM,53.2,46.2,77,30.34,10.0,ESE,4.6,-,N/A,,Clear,120,2012-11-11 06:35:00
1:55 AM,53.1,46.4,78,30.34,10.0,ESE,3.5,-,N/A,,Clear,120,2012-11-11 06:55:00
2:15 AM,52.9,46.4,79,30.33,10.0,ESE,4.6,-,N/A,,Clear,120,2012-11-11 07:15:00
2:35 AM,53.4,46.8,78,30.33,10.0,Calm,Calm,-,N/A,,Clear,0,2012-11-11 07:35:00
2:55 AM,53.4,47.7,81,30.33,10.0,ESE,3.5,-,N/A,,Clear,120,2012-11-11 07:55:00
3:15 AM,53.4,48.7,84,30.33,10.0,ESE,3.5,-,N/A,,Clear,110,2012-11-11 08:15:00
3:35 AM,53.4,49.8,88,30.33,10.0,ESE,3.5,-,N/A,,Clear,110,2012-11-11 08:35:00
3:55 AM,52.9,50.0,90,30.33,10.0,Calm,Calm,-,N/A,,Clear,0,2012-11-11 08:55:00
4:15 AM,51.8,49.1,90,30.33,10.0,East,4.6,-,N/A,,Clear,100,2012-11-11 09:15:00
4:35 AM,51.6,49.3,92,30.33,10.0,East,5.8,-,N/A,,Clear,90,2012-11-11 09:35:00
4:55 AM,52.2,50.0,92,30.34,10.0,East,5.8,-,N/A,,Clear,90,2012-11-11 09:55:00
5:15 AM,52.0,50.0,93,30.33,10.0,East,5.8,-,N/A,,Clear,90,2012-11-11 10:15:00
5:35 AM,52.0,50.0,93,30.34,10.0,East,4.6,-,N/A,,Clear,100,2012-11-11 10:35:00
5:55 AM,51.8,49.8,93,30.34,10.0,East,4.6,-,N/A,,Mostly Cloudy,90,2012-11-11 10:55:00
6:35 AM,53.1,50.7,92,30.35,10.0,East,3.5,-,N/A,,Overcast,90,2012-11-11 11:35:00
6:55 AM,53.1,50.7,92,30.37,10.0,Calm,Calm,-,N/A,,Overcast,0,2012-11-11 11:55:00
7:15 AM,53.6,51.1,91,30.37,10.0,East,3.5,-,N/A,,Overcast,80,2012-11-11 12:15:00
7:35 AM,54.3,51.3,89,30.38,10.0,East,4.6,-,N/A,,Overcast,100,2012-11-11 12:35:00
8:35 AM,59.2,53.8,82,30.38,10.0,East,4.6,-,N/A,,Overcast,90,2012-11-11 13:35:00
9:15 AM,60.6,54.7,81,30.40,10.0,East,4.6,-,N/A,,Overcast,80,2012-11-11 14:15:00
9:35 AM,61.0,55.0,81,30.41,10.0,East,3.5,-,N/A,,Overcast,80,2012-11-11 14:35:00
10:15 AM,64.6,56.5,75,30.41,10.0,East,5.8,-,N/A,,Overcast,90,2012-11-11 15:15:00
10:35 AM,66.0,56.8,72,30.41,10.0,ENE,5.8,-,N/A,,Mostly Cloudy,70,2012-11-11 15:35:00
10:55 AM,67.8,57.0,68,30.40,10.0,East,5.8,-,N/A,,Scattered Clouds,80,2012-11-11 15:55:00
11:15 AM,69.4,57.0,65,30.39,10.0,East,3.5,-,N/A,,Clear,90,2012-11-11 16:15:00
11:35 AM,71.1,56.5,60,30.39,10.0,East,4.6,-,N/A,,Scattered Clouds,90,2012-11-11 16:35:00
12:15 PM,73.4,54.9,52,30.37,10.0,SE,6.9,-,N/A,,Overcast,140,2012-11-11 17:15:00
12:35 PM,73.8,54.3,51,30.36,10.0,ESE,8.1,-,N/A,,Overcast,110,2012-11-11 17:35:00
1:15 PM,73.8,55.0,52,30.35,10.0,ESE,8.1,-,N/A,,Overcast,110,2012-11-11 18:15:00
1:35 PM,74.1,55.6,52,30.34,10.0,SSE,4.6,-,N/A,,Overcast,160,2012-11-11 18:35:00
1:55 PM,74.1,55.6,52,30.33,10.0,SE,8.1,-,N/A,,Overcast,140,2012-11-11 18:55:00
2:15 PM,74.7,55.6,51,30.32,10.0,SSE,8.1,-,N/A,,Overcast,150,2012-11-11 19:15:00
2:35 PM,74.8,56.1,52,30.32,10.0,ESE,8.1,-,N/A,,Overcast,120,2012-11-11 19:35:00
3:15 PM,73.9,56.8,55,30.32,10.0,ESE,9.2,16.1,N/A,,Mostly Cloudy,120,2012-11-11 20:15:00
3:35 PM,73.9,57.2,56,30.31,10.0,East,11.5,-,N/A,,Scattered Clouds,100,2012-11-11 20:35:00
3:55 PM,72.9,57.4,58,30.31,10.0,SE,3.5,-,N/A,,Scattered Clouds,130,2012-11-11 20:55:00
4:15 PM,73.4,57.6,58,30.31,10.0,ESE,11.5,16.1,N/A,,Clear,120,2012-11-11 21:15:00
4:35 PM,72.5,57.6,59,30.32,10.0,ESE,5.8,-,N/A,,Clear,120,2012-11-11 21:35:00
4:55 PM,71.6,57.9,62,30.32,10.0,ESE,5.8,-,N/A,,Clear,110,2012-11-11 21:55:00
5:15 PM,71.1,57.9,63,30.31,10.0,ESE,4.6,-,N/A,,Clear,120,2012-11-11 22:15:00
5:35 PM,70.2,57.7,65,30.31,10.0,ESE,4.6,-,N/A,,Clear,110,2012-11-11 22:35:00
5:55 PM,69.1,57.6,67,30.31,10.0,ESE,3.5,-,N/A,,Clear,120,2012-11-11 22:55:00
6:15 PM,68.0,57.4,69,30.31,10.0,East,4.6,-,N/A,,Clear,100,2012-11-11 23:15:00
6:35 PM,67.3,57.4,70,30.32,10.0,ESE,3.5,-,N/A,,Clear,110,2012-11-11 23:35:00
6:55 PM,66.6,57.4,72,30.33,10.0,ESE,3.5,-,N/A,,Clear,110,2012-11-11 23:55:00
7:15 PM,65.5,57.2,75,30.33,10.0,ESE,3.5,-,N/A,,Clear,110,2012-11-12 00:15:00
7:35 PM,64.9,57.2,76,30.33,10.0,ESE,3.5,-,N/A,,Clear,110,2012-11-12 00:35:00
7:55 PM,64.2,57.0,77,30.32,10.0,ESE,4.6,-,N/A,,Clear,120,2012-11-12 00:55:00
8:15 PM,63.7,56.7,78,30.32,10.0,ESE,4.6,-,N/A,,Clear,110,2012-11-12 01:15:00
8:35 PM,63.1,56.7,79,30.32,10.0,ESE,5.8,-,N/A,,Clear,110,2012-11-12 01:35:00
8:55 PM,63.0,56.8,80,30.33,10.0,ESE,5.8,-,N/A,,Clear,110,2012-11-12 01:55:00
9:15 PM,62.6,57.2,82,30.32,10.0,ESE,5.8,-,N/A,,Clear,110,2012-11-12 02:15:00
9:35 PM,62.2,57.7,85,30.32,10.0,ESE,4.6,-,N/A,,Clear,110,2012-11-12 02:35:00
9:55 PM,62.1,58.5,88,30.32,10.0,ESE,5.8,-,N/A,,Clear,110,2012-11-12 02:55:00
10:15 PM,62.1,59.0,90,30.32,10.0,East,6.9,-,N/A,,Clear,100,2012-11-12 03:15:00
10:35 PM,61.9,59.0,90,30.32,10.0,ESE,5.8,-,N/A,,Clear,110,2012-11-12 03:35:00
10:55 PM,61.5,59.2,92,30.32,10.0,ESE,3.5,-,N/A,,Clear,120,2012-11-12 03:55:00
11:15 PM,61.0,59.2,94,30.32,10.0,Calm,Calm,-,N/A,,Clear,0,2012-11-12 04:15:00
11:35 PM,60.4,59.2,96,30.32,10.0,ESE,3.5,-,N/A,,Clear,110,2012-11-12 04:35:00
11:55 PM,60.3,59.4,97,30.32,10.0,ESE,3.5,-,N/A,,Clear,110,2012-11-12 04:55:00